Location: Okie-Tex Star Party
(36.8978°N, 102.9520°W)
Time: 20:54:11
(UTC-06:00)

Daily predictions for brighter satellites

Satellite Brightness Start Highest point End
(mag) Time Altitude Azimuth Time Altitude Azimuth Time Altitude Azimuth
CSL-04 Rocket 4.3 17:52:15 10° S 17:57:37 65° WSW 18:03:07 10° NNW
BREEZE-M DEB (TANK) 3.7 17:59:45 10° WNW 18:01:33 17° NNW 18:03:09 10° NNE
YAOGAN 1 2.9 18:00:10 10° SE 18:04:15 42° ENE 18:08:21 10° N
SPOT 3 Rocket 3.7 17:59:37 10° SSE 18:04:38 54° ENE 18:09:41 10° N
Cosmos 1536 3.4 18:01:06 10° NNW 18:05:08 66° W 18:09:10 10° S
Cosmos 1812 3.3 18:01:41 10° SSE 18:05:14 36° E 18:08:48 10° NNE
CZ-3A R/B 3.8 18:04:23 10° W 18:08:36 45° NNW 18:27:09 10° NE
Meteor 1-18 Rocket 4.5 18:03:47 10° SSE 18:09:10 50° E 18:14:41 10° NNE
COSMOS 2487 4.5 18:10:07 10° NE 18:11:02 11° ENE 18:11:56 10° ENE
Cosmos 1844 Rocket 3.0 18:05:41 10° SSW 18:11:14 70° WNW 18:16:51 10° NNE
ISS -1.3 18:08:50 10° W 18:11:25 21° NNW 18:14:00 10° NNE
USA 234 3.8 18:05:37 10° NE 18:11:58 55° NW 18:18:17 10° WSW
AQUARIUS 4.2 18:09:39 10° SSE 18:14:05 62° ENE 18:18:32 10° N
USA 32 4.0 18:11:56 10° S 18:17:09 80° E 18:22:23 10° N
Cosmos 1346 Rocket 3.9 18:14:09 10° SE 18:17:17 23° E 18:20:23 10° NE
BREEZE M DEB (TANK) 4.4 18:14:52 10° NNW 18:17:30 18° NNE 18:21:54 11° ENE
EP 2 4.1 18:17:34 10° SSW 18:20:12 88° SE 18:22:50 10° NNE
ASTRO F (AKARI) 4.4 18:19:19 10° NNE 18:22:23 49° ESE 18:25:25 10° S
Meteor 2-19 Rocket 4.4 18:17:30 10° N 18:23:35 79° E 18:29:38 10° S
NOSS 3-3 (A) 4.0 18:18:20 10° SSW 18:24:23 69° ESE 18:30:54 10° NE
NOSS 3-3 (C) 4.0 18:18:27 10° SSW 18:24:30 68° ESE 18:31:00 10° NE
IDEFIX/ARIANE 42P 2.5 18:20:05 10° SSE 18:25:17 81° ENE 18:30:30 10° N
SL-8 Rocket 4.0 18:19:32 10° N 18:25:43 89° W 18:31:53 10° S
CORIOLIS 4.1 18:21:03 10° SSE 18:26:26 74° ENE 18:31:51 10° N
Cosmos 1455 Rocket 3.1 18:22:49 10° N 18:27:12 61° E 18:31:34 10° SSE
Cosmos 494 Rocket 4.0 18:23:00 10° N 18:28:11 57° ENE 18:33:21 10° SSE
Cosmos 1844 4.0 18:22:41 10° SSW 18:28:13 68° WNW 18:33:46 10° NNE
SKYMED 2 4.2 18:24:15 10° NNE 18:28:16 36° E 18:32:15 10° SSE
Cosmos 2297 4.4 18:25:37 10° SSE 18:30:35 33° ESE 18:35:04 12° NE
Delta 2 Rocket 4.2 18:31:41 10° SW 18:35:10 36° SSE 18:38:03 16° E
ATLAS 2AS CENTAUR R/B 3.0 18:27:29 10° NNW 18:35:35 77° ENE 18:43:02 10° SE
Cosmos 2366 rocket 4.0 18:30:40 10° N 18:37:03 82° E 18:43:20 10° S
CZ-4 R/B 2.5 18:33:32 10° S 18:37:36 49° W 18:41:39 10° NNW
OTV 4 2.4 18:36:42 10° W 18:39:19 27° SSW 18:41:56 10° SE
MSX 3.8 18:34:27 10° SSE 18:40:11 75° ENE 18:45:56 10° N
SMAP 3.5 18:36:15 10° S 18:40:51 66° WSW 18:45:30 10° NNW
Cosmos 2218 Rocket 4.1 18:35:29 10° N 18:41:47 80° W 18:47:57 10° S
Thor Agena Rocket 4.3 18:38:37 10° N 18:43:41 54° WNW 18:48:47 10° SSW
SL-24 DEB 4.2 18:39:41 10° N 18:44:26 72° E 18:49:05 10° S
MONITOR-E 4.1 18:41:27 10° SSE 18:44:36 67° ENE 18:47:47 10° N
Cosmos 2278 Rocket 2.3 18:39:00 10° SSW 18:44:38 83° WNW 18:50:20 10° NNE
Cosmos 1238 Rocket 3.3 18:42:33 10° SSW 18:45:23 42° W 18:48:15 10° N
CZ-2C R/B 3.2 18:43:11 10° S 18:48:01 57° W 18:53:03 10° NNW
Cosmos 1975 2.7 18:44:10 10° N 18:48:14 68° E 18:52:14 10° SSE
SL-27 R/B 4.2 18:51:31 10° NW 18:54:54 36° WSW 18:58:15 10° S
Cosmos 2251 Rocket 3.9 18:50:00 10° NNW 18:55:19 68° WSW 19:00:34 10° S
Timation 2 Rocket 4.5 18:49:44 10° N 18:56:12 43° ENE 19:02:40 10° SE
Meteor 1-12 Rocket 4.4 18:50:24 10° N 18:56:13 82° W 19:02:07 10° S
Genesis I 3.7 18:54:10 10° NNW 18:57:50 36° NE 18:58:26 34° ENE
COSMOS 2441 4.4 18:54:30 10° S 18:59:21 84° WSW 19:04:17 10° NNW
Cosmos 1484 Rocket 2.6 18:59:28 10° SSE 19:03:14 89° WSW 19:06:59 10° NNW
TIMED 4.4 19:00:24 10° S 19:04:42 64° ESE 19:06:53 28° NNE
NOAA 12 4.3 19:00:33 10° SE 19:05:31 44° ENE 19:10:30 10° N
SL-8 R/B 4.5 19:01:58 10° W 19:06:31 43° NNW 19:08:49 25° NNE
Cosmos 1743 4.1 19:10:05 24° SE 19:10:05 24° SE 19:11:50 10° SSE
DMSP B5D1-3 4.4 19:06:25 10° NNE 19:11:36 82° ESE 19:16:43 10° S
Cosmos 1821 Rocket 4.1 19:06:01 10° N 19:11:50 45° E 19:17:37 10° SSE
Cosmos 2082 Rocket 2.4 19:07:02 10° N 19:12:26 44° ENE 19:15:49 22° SE
Meteor 1-13 Rocket 4.1 19:07:09 10° S 19:12:47 78° E 19:18:33 10° NNE
METEOR-M 4.3 19:08:52 10° SE 19:13:54 45° ENE 19:18:58 10° N
Cosmos 1833 Rocket 3.1 19:08:39 10° N 19:13:54 38° ENE 19:14:57 35° E
COSMO-SKYMED 1 3.1 19:12:02 10° N 19:16:19 60° WNW 19:20:34 10° SSW
Cosmos 1500 3.7 19:13:43 10° NNW 19:17:30 61° W 19:21:18 10° S
Meteor 2-21 4.4 19:11:53 10° N 19:18:04 86° W 19:24:12 10° S
GRACE-2 4.3 19:15:41 10° S 19:18:18 59° WSW 19:18:18 59° WSW
GRACE-1 4.4 19:16:07 10° S 19:18:48 58° W 19:18:48 58° W
NOSS 2-1 (D) 3.1 19:16:51 10° SSW 19:20:37 69° ESE 19:20:55 65° E
NOSS 2-1 (C) 3.1 19:17:31 10° SSW 19:21:19 67° ESE 19:21:34 65° E
Meteor 1-28 Rocket 3.1 19:20:30 40° N 19:21:48 88° WNW 19:25:35 10° SSW
Meteor 1-23 Rocket 4.4 19:19:13 10° SSE 19:24:41 48° E 19:25:42 43° ENE
CZ-3B DEB 3.6 19:21:17 10° W 19:25:25 34° NNW 19:30:57 19° NNE
Tiangong 1 2.3 19:26:46 10° WSW 19:28:54 39° W 19:28:54 39° W
Nadezhda 3 Rocket 4.3 19:25:57 10° SSW 19:32:05 67° W 19:38:19 10° N
Timation 1 Rocket 4.3 19:29:42 10° SSW 19:35:39 83° WNW 19:38:38 32° NNE
GEOS 3 Rocket 3.4 19:34:43 32° SE 19:37:11 85° NE 19:42:19 10° NNW
Meteor 2-4 Rocket 3.4 19:33:57 10° S 19:39:20 76° E 19:40:40 52° NNE
NOSS 2-1 (E) 3.4 19:36:03 10° SW 19:39:32 72° WSW 19:39:32 72° WSW
Meteor 2-14 Rocket 4.5 19:33:51 10° N 19:40:01 79° W 19:46:08 10° S
Cosmos 2056 Rocket 3.7 19:36:37 10° S 19:41:14 53° SE 19:41:14 53° SE
Cosmos 1025 Rocket 3.1 19:40:28 10° S 19:44:25 72° SSW 19:44:25 72° SSW
COSMOS 2487 3.8 19:43:23 10° NNW 19:46:46 39° WSW 19:47:28 35° SW
Cosmos 921 Rocket 4.0 19:46:31 10° SW 19:50:33 44° WNW 19:51:27 38° NW
Cosmos 1624 Rocket 4.1 19:50:29 10° SSW 19:54:56 66° S 19:54:56 66° S
Cosmos 1371 Rocket 4.2 19:54:48 10° SSW 20:00:07 71° WNW 20:00:34 67° NW
NOSS 3-4 (A) 4.2 20:04:16 10° NNW 20:09:29 47° N 20:09:29 47° N
NOSS 3-4 (C) 4.2 20:04:23 10° NNW 20:09:33 46° N 20:09:33 46° N
FALCON 9 R/B 2.9 19:57:02 10° W 20:15:01 77° S 20:15:38 72° SE
ATLAS 3B CENTAUR R/B 3.9 20:42:39 10° W 20:53:30 39° SSW 20:53:30 39° SSW
Cosmos 2082 Rocket 4.3 20:51:52 10° NW 20:56:10 23° W 20:57:59 19° SW
